Windom, MN

12:25 PM CST on November 18, 2017 (GMT -0600)
Windom Municipal

Weather History for KMWM - April, 2014

Change the Weather History Date:

Thursday, April 17, 2014

  Actual Average Record
Temperature  
Mean Temperature 32 °F -  
Max Temperature 42 °F 60 °F 85 °F (1964)
Min Temperature 21 °F 36 °F 17 °F (1953)
Degree Days  
Heating Degree Days 34    
Moisture  
Dew Point 25 °F    
Average Humidity 81    
Maximum Humidity 93    
Minimum Humidity 57    
Precipitation  
Precipitation 0.00 in - - ()
Sea Level Pressure  
Sea Level Pressure 30.23 in    
Wind  
Wind Speed 15 mph (NNW)    
Max Wind Speed 23 mph    
Max Gust Speed 31 mph    
Visibility 10 miles    
Events      
Averages and records for this station are not official NWS values.
T = Trace of Precipitation, MM = Missing Value Source: NWS Daily Summary

Daily Weather History Graph

Daily Weather History Graph

Search for Another Location

Airport or City:

Trip Planner

Search our weather history database for the weather conditions in past years. The results will help you decide how hot, cold, wet, or windy it might be!

Date:

Astronomy

Apr. 17, 2014 Rise Set
Actual Time 6:33 AM CDT 8:06 PM CDT
Civil Twilight 6:03 AM CDT 8:37 PM CDT
Nautical Twilight 5:27 AM CDT 9:13 PM CDT
Astronomical Twilight 4:48 AM CDT 9:53 PM CDT
Moon 10:57 PM CDT (4/17) 8:02 AM CDT (4/17)
Length of Visible Light 14h 33m
Length of Day
13h 32m
Waning Gibbous, 93% of the Moon is Illuminated
Apr 17
Waning Gibbous
Apr 22
Last Quarter
Apr 29
New
May 6
First Quarter
May 14
Full

Hourly Weather History & Observations

Time (CDT) Temp. Windchill Dew Point Humidity Pressure Visibility Wind Dir Wind Speed Gust Speed Precip Events Conditions
12:12 AM 28.4 °F 14.7 °F 26.6 °F 93% 30.04 in 10.0 mi NNW 21.9 mph 31.1 mph N/A   Overcast
12:33 AM 28.4 °F 15.4 °F 26.6 °F 93% 30.05 in 10.0 mi NNW 19.6 mph 29.9 mph N/A   Overcast
12:52 AM 28.4 °F 14.4 °F 26.6 °F 93% 30.06 in 10.0 mi NNW 23.0 mph 28.8 mph N/A   Overcast
1:12 AM 28.4 °F 14.7 °F 24.8 °F 86% 30.06 in 10.0 mi NNW 21.9 mph 27.6 mph N/A   Overcast
1:33 AM 28.4 °F 14.7 °F 24.8 °F 86% 30.06 in 10.0 mi NNW 21.9 mph 27.6 mph N/A   Overcast
1:52 AM 28.4 °F 15.1 °F 24.8 °F 86% 30.08 in 10.0 mi NNW 20.7 mph 26.5 mph N/A   Overcast
2:12 AM 28.4 °F 15.1 °F 24.8 °F 86% 30.08 in 10.0 mi NNW 20.7 mph 26.5 mph N/A   Overcast
2:33 AM 28.4 °F 15.4 °F 24.8 °F 86% 30.09 in 10.0 mi NW 19.6 mph - N/A   Overcast
2:52 AM 28.4 °F 15.4 °F 24.8 °F 86% 30.10 in 10.0 mi NW 19.6 mph 26.5 mph N/A   Overcast
3:12 AM 26.6 °F 12.7 °F 24.8 °F 93% 30.11 in 10.0 mi NW 20.7 mph 24.2 mph N/A   Overcast
3:32 AM 26.6 °F 12.7 °F 24.8 °F 93% 30.11 in 10.0 mi NW 20.7 mph - N/A   Overcast
3:52 AM 26.6 °F 13.4 °F 23.0 °F 86% 30.13 in 10.0 mi NW 18.4 mph 24.2 mph N/A   Overcast
4:13 AM 24.8 °F 10.7 °F 21.2 °F 86% 30.13 in 10.0 mi NW 19.6 mph 24.2 mph N/A   Mostly Cloudy
4:32 AM 24.8 °F 10.7 °F 21.2 °F 86% 30.13 in 10.0 mi NW 19.6 mph - N/A   Clear
4:52 AM 23.0 °F 9.6 °F 21.2 °F 93% 30.15 in 10.0 mi NW 16.1 mph - N/A   Clear
5:13 AM 23.0 °F 8.7 °F 19.4 °F 86% 30.15 in 10.0 mi NW 18.4 mph - N/A   Clear
5:32 AM 21.2 °F 6.0 °F 19.4 °F 93% 30.15 in 10.0 mi NW 19.6 mph - N/A   Clear
5:52 AM 21.2 °F 7.3 °F 19.4 °F 93% 30.17 in 10.0 mi NW 16.1 mph - N/A   Clear
6:13 AM 21.2 °F 7.3 °F 19.4 °F 93% 30.17 in 10.0 mi NW 16.1 mph - N/A   Clear
6:32 AM 21.2 °F 6.8 °F 19.4 °F 93% 30.18 in 10.0 mi NW 17.3 mph - N/A   Clear
6:52 AM 21.2 °F 7.8 °F 19.4 °F 93% 30.20 in 10.0 mi NW 15.0 mph - N/A   Clear
7:13 AM 21.2 °F 6.8 °F 19.4 °F 93% 30.20 in 10.0 mi NW 17.3 mph - N/A   Clear
7:32 AM 23.0 °F 9.2 °F 19.4 °F 86% 30.21 in 10.0 mi NW 17.3 mph - N/A   Clear
7:52 AM 23.0 °F 10.6 °F 19.4 °F 86% 30.23 in 10.0 mi NW 13.8 mph - N/A   Clear
8:12 AM 23.0 °F 9.6 °F 19.4 °F 86% 30.24 in 10.0 mi NW 16.1 mph - N/A   Clear
8:32 AM 24.8 °F 11.9 °F 21.2 °F 86% 30.24 in 10.0 mi NNW 16.1 mph - N/A   Clear
8:53 AM 24.8 °F 12.4 °F 21.2 °F 86% 30.25 in 10.0 mi NNW 15.0 mph - N/A   Clear
9:13 AM 26.6 °F 14.3 °F 21.2 °F 80% 30.26 in 10.0 mi NW 16.1 mph - N/A   Clear
9:32 AM 26.6 °F 14.3 °F 23.0 °F 86% 30.27 in 10.0 mi NNW 16.1 mph - N/A   Clear
9:53 AM 26.6 °F 15.7 °F 23.0 °F 86% 30.29 in 10.0 mi NW 12.7 mph - N/A   Scattered Clouds
10:13 AM 28.4 °F 19.1 °F 23.0 °F 80% 30.29 in 10.0 mi NW 10.4 mph - N/A   Mostly Cloudy
10:32 AM 28.4 °F 18.5 °F 24.8 °F 86% 30.30 in 10.0 mi NW 11.5 mph - N/A   Mostly Cloudy
10:53 AM 28.4 °F 18.5 °F 24.8 °F 86% 30.30 in 10.0 mi NNW 11.5 mph - N/A   Mostly Cloudy
11:13 AM 30.2 °F 20.2 °F 26.6 °F 86% 30.30 in 10.0 mi NNW 12.7 mph - N/A   Scattered Clouds
11:32 AM 30.2 °F 20.8 °F 26.6 °F 86% 30.30 in 10.0 mi NNW 11.5 mph - N/A   Scattered Clouds
12:13 PM 33.8 °F 25.3 °F 28.4 °F 81% 30.30 in 10.0 mi NNW 11.5 mph - N/A   Scattered Clouds
12:32 PM 33.8 °F 25.3 °F 28.4 °F 81% 30.30 in 10.0 mi NNW 11.5 mph 17.3 mph N/A   Scattered Clouds
12:53 PM 35.6 °F 27.1 °F 28.4 °F 75% 30.30 in 10.0 mi NNW 12.7 mph 16.1 mph N/A   Scattered Clouds
1:13 PM 35.6 °F 26.6 °F 28.4 °F 75% 30.29 in 10.0 mi NNW 13.8 mph - N/A   Mostly Cloudy
1:32 PM 37.4 °F 29.3 °F 28.4 °F 70% 30.29 in 10.0 mi NNW 12.7 mph 18.4 mph N/A   Mostly Cloudy
1:53 PM 37.4 °F 29.3 °F 28.4 °F 70% 30.29 in 10.0 mi NNW 12.7 mph - N/A   Mostly Cloudy
2:13 PM 37.4 °F 29.3 °F 28.4 °F 70% 30.29 in 10.0 mi NNW 12.7 mph 19.6 mph N/A   Scattered Clouds
2:32 PM 39.2 °F 33.0 °F 28.4 °F 65% 30.30 in 10.0 mi WNW 9.2 mph 16.1 mph N/A   Scattered Clouds
2:52 PM 39.2 °F 33.0 °F 28.4 °F 65% 30.30 in 10.0 mi NNW 9.2 mph 17.3 mph N/A   Scattered Clouds
3:13 PM 41.0 °F 34.7 °F 28.4 °F 61% 30.30 in 10.0 mi NW 10.4 mph - N/A   Scattered Clouds
3:32 PM 41.0 °F 37.1 °F 26.6 °F 57% 30.29 in 10.0 mi North 5.8 mph 16.1 mph N/A   Clear
3:52 PM 42.8 °F 37.5 °F 30.2 °F 61% 30.29 in 10.0 mi NNW 9.2 mph - N/A   Scattered Clouds
4:13 PM 41.0 °F 36.4 °F 28.4 °F 61% 30.29 in 10.0 mi North 6.9 mph - N/A   Scattered Clouds
4:32 PM 41.0 °F 35.8 °F 28.4 °F 61% 30.28 in 10.0 mi NNW 8.1 mph - N/A   Scattered Clouds
4:52 PM 41.0 °F 36.4 °F 28.4 °F 61% 30.29 in 10.0 mi North 6.9 mph - N/A   Clear
5:13 PM 39.2 °F 35.9 °F 28.4 °F 65% 30.29 in 10.0 mi North 4.6 mph - N/A   Clear
5:32 PM 39.2 °F 34.2 °F 28.4 °F 65% 30.28 in 10.0 mi NNW 6.9 mph - N/A   Clear
5:52 PM 41.0 °F 38.0 °F 28.4 °F 61% 30.28 in 10.0 mi NNE 4.6 mph - N/A   Scattered Clouds
6:13 PM 39.2 °F 35.9 °F 28.4 °F 65% 30.28 in 10.0 mi NNE 4.6 mph - N/A   Scattered Clouds
6:32 PM 39.2 °F 35.9 °F 28.4 °F 65% 30.28 in 10.0 mi North 4.6 mph - N/A   Clear
6:52 PM 39.2 °F 37.0 °F 26.6 °F 61% 30.28 in 10.0 mi North 3.5 mph - N/A   Clear
7:13 PM 39.2 °F 35.0 °F 26.6 °F 61% 30.28 in 10.0 mi NNW 5.8 mph - N/A   Clear
7:32 PM 37.4 °F 32.8 °F 28.4 °F 70% 30.28 in 10.0 mi North 5.8 mph - N/A   Clear
7:52 PM 35.6 °F 31.7 °F 28.4 °F 75% 30.29 in 10.0 mi North 4.6 mph - N/A   Clear
8:13 PM 33.8 °F 30.8 °F 28.4 °F 81% 30.29 in 10.0 mi North 3.5 mph - N/A   Clear
8:32 PM 33.8 °F 30.8 °F 28.4 °F 81% 30.29 in 10.0 mi North 3.5 mph - N/A   Clear
8:52 PM 30.2 °F 25.4 °F 28.4 °F 93% 30.29 in 10.0 mi North 4.6 mph - N/A   Clear
9:13 PM 30.2 °F 24.3 °F 28.4 °F 93% 30.30 in 10.0 mi North 5.8 mph - N/A   Clear
9:32 PM 30.2 °F 25.4 °F 26.6 °F 86% 30.30 in 10.0 mi North 4.6 mph - N/A   Clear
9:52 PM 30.2 °F 25.4 °F 26.6 °F 86% 30.30 in 10.0 mi North 4.6 mph - N/A   Clear
10:13 PM 28.4 °F - 26.6 °F 93% 30.30 in 10.0 mi Calm Calm - N/A   Clear
10:32 PM 28.4 °F 24.6 °F 26.6 °F 93% 30.30 in 10.0 mi NNE 3.5 mph - N/A   Clear
10:52 PM 28.4 °F - 26.6 °F 93% 30.30 in 10.0 mi Calm Calm - N/A   Clear
11:12 PM 30.2 °F - 28.4 °F 93% 30.30 in 10.0 mi Calm Calm - N/A   Scattered Clouds
11:32 PM 30.2 °F - 28.4 °F 93% 30.30 in 10.0 mi Calm Calm - N/A   Overcast
11:53 PM 30.2 °F - 28.4 °F 93% 30.30 in 10.0 mi Calm Calm - N/A   Overcast